STARLINK-1178 (45063 NORAD) Tracking and Keplerian Element Data

This shows tracking and keplerian element data for the satellite.

Feedback or suggestion? Click here.




ElementValue
Catalog45063
NameSTARLINK-1178
Epoch Orbit401
Epoch Day52.91667824
Epoch Year2020
RAAN120.9025
Inclination52.9975
Eccentricity0.0001638
Argument of Perigee54.1281
Mean Anonmoly156.8847
Mean Motion15.50884893
Decay Rate0.00669352
L11 45063U 20006V 20052.91667824 .00669352 00000-0 10585-1 0 9999
L22 45063 52.9975 120.9025 0001638 54.1281 156.8847 15.50884893 4010

Live tracking and technical data element details for STARLINK-1178 (NORAD 45063). STARLINK-1178 can be tracked NOW for your location showing map with azimuth and elevation plus other details from your city location.

Track the satellite on the map from your city or location and see movement details for azimuth, elevation, latitude, longitude, range, height, and movement on the map or in text.







IsCatalogInMostPopularTable: catalog: 45063, numindb: 8
Update: records affected: 1



GetName: 45063 STARLINK-1178

Hit Count: updated at: Wed, 26 Feb 2020 16:30:33 GMT